| time (UTC) | temp F | wind direction | speed MPH | gust MPH | rain 1hr in | rain 24hr in | rain mn in | humidity % | barometer mb |
| 20260902160645 | 86 | 202 | 12.0 | 17.0 | 0.00 | 0.00 | 0.00 | 40 | 1016.9 |
| 20260902160139 | 85 | 221 | 10.0 | 13.0 | 0.00 | 0.00 | 0.00 | 40 | 1017.2 |
| 20260902155637 | 84 | 223 | 9.0 | 15.0 | 0.00 | 0.00 | 0.00 | 41 | 1017.1 |
| 20260902155136 | 85 | 224 | 10.0 | 15.0 | 0.00 | 0.00 | 0.00 | 40 | 1017.1 |
| 20260902154631 | 86 | 226 | 7.0 | 12.0 | 0.00 | 0.00 | 0.00 | 40 | 1017.4 |
| 20260902154126 | 84 | 221 | 8.0 | 17.0 | 0.00 | 0.00 | 0.00 | 42 | 1017.0 |
| 20260902153625 | 84 | 227 | 12.0 | 15.0 | 0.00 | 0.00 | 0.00 | 41 | 1017.0 |
| 20260902153120 | 84 | 216 | 7.0 | 12.0 | 0.00 | 0.00 | 0.00 | 42 | 1016.9 |
| 20260902152617 | 84 | 241 | 8.0 | 13.0 | 0.00 | 0.00 | 0.00 | 42 | 1016.8 |
| 20260902152112 | 84 | 232 | 14.0 | 15.0 | 0.00 | 0.00 | 0.00 | 41 | 1016.9 |
| 20260902151607 | 84 | 224 | 14.0 | 15.0 | 0.00 | 0.00 | 0.00 | 41 | 1016.8 |
| 20260902151106 | 84 | 195 | 9.0 | 15.0 | 0.00 | 0.00 | 0.00 | 41 | 1016.9 |
| 20260902150601 | 83 | 205 | 8.0 | 12.0 | 0.00 | 0.00 | 0.00 | 41 | 1017.0 |
| 20260902150057 | 82 | 205 | 9.0 | 14.0 | 0.00 | 0.00 | 0.00 | 41 | 1016.9 |
| 20260902145552 | 82 | 221 | 6.0 | 14.0 | 0.00 | 0.00 | 0.00 | 43 | 1016.8 |
| 20260902145051 | 82 | 206 | 10.0 | 14.0 | 0.00 | 0.00 | 0.00 | 42 | 1016.9 |
| 20260902144549 | 81 | 206 | 7.0 | 13.0 | 0.00 | 0.00 | 0.00 | 43 | 1016.8 |
| 20260902144048 | 81 | 199 | 11.0 | 13.0 | 0.00 | 0.00 | 0.00 | 42 | 1016.9 |
| 20260902143543 | 81 | 184 | 7.0 | 14.0 | 0.00 | 0.00 | 0.00 | 43 | 1016.7 |
| 20260902143039 | 80 | 211 | 8.0 | 15.0 | 0.00 | 0.00 | 0.00 | 43 | 1016.9 |
| 20260902142534 | 80 | 202 | 6.0 | 12.0 | 0.00 | 0.00 | 0.00 | 43 | 1016.9 |
| 20260902142031 | 79 | 200 | 6.0 | 12.0 | 0.00 | 0.00 | 0.00 | 44 | 1016.6 |
| 20260902141530 | 79 | 199 | 11.0 | 11.0 | 0.00 | 0.00 | 0.00 | 45 | 1016.7 |
| 20260902141026 | 78 | 203 | 5.0 | 11.0 | 0.00 | 0.00 | 0.00 | 46 | 1016.9 |
| 20260902140525 | 77 | 209 | 8.0 | 10.0 | 0.00 | 0.00 | 0.00 | 47 | 1016.8 |
| 20260902140021 | 77 | 212 | 5.0 | 11.0 | 0.00 | 0.00 | 0.00 | 47 | 1016.7 |
| 20260902135515 | 77 | 207 | 9.0 | 11.0 | 0.00 | 0.00 | 0.00 | 47 | 1016.7 |
| 20260902135010 | 76 | 218 | 7.0 | 11.0 | 0.00 | 0.00 | 0.00 | 47 | 1016.7 |
| 20260902134506 | 76 | 198 | 8.0 | 11.0 | 0.00 | 0.00 | 0.00 | 48 | 1016.7 |
| 20260902134006 | 75 | 199 | 5.0 | 11.0 | 0.00 | 0.00 | 0.00 | 49 | 1016.8 |
| 20260902133500 | 75 | 169 | 6.0 | 12.0 | 0.00 | 0.00 | 0.00 | 50 | 1016.9 |
| 20260902132955 | 74 | 201 | 7.0 | 11.0 | 0.00 | 0.00 | 0.00 | 50 | 1016.5 |
| 20260902132450 | 74 | 210 | 6.0 | 9.0 | 0.00 | 0.00 | 0.00 | 50 | 1016.6 |
| 20260902131945 | 74 | 185 | 6.0 | 9.0 | 0.00 | 0.00 | 0.00 | 51 | 1016.4 |
| 20260902131442 | 74 | 199 | 5.0 | 10.0 | 0.00 | 0.00 | 0.00 | 51 | 1016.4 |
| 20260902130941 | 73 | 190 | 5.0 | 9.0 | 0.00 | 0.00 | 0.00 | 51 | 1016.4 |
| 20260902130437 | 74 | 188 | 5.0 | 9.0 | 0.00 | 0.00 | 0.00 | 51 | 1016.5 |
| 20260902125937 | 73 | 205 | 7.0 | 11.0 | 0.00 | 0.00 | 0.00 | 51 | 1016.2 |
| 20260902125433 | 73 | 202 | 6.0 | 6.0 | 0.00 | 0.00 | 0.00 | 51 | 1016.2 |
| 20260902124929 | 73 | 201 | 4.0 | 8.0 | 0.00 | 0.00 | 0.00 | 52 | 1016.1 |
| 20260902124425 | 73 | 186 | 5.0 | 6.0 | 0.00 | 0.00 | 0.00 | 52 | 1016.1 |
| 20260902123920 | 73 | 199 | 5.0 | 6.0 | 0.00 | 0.00 | 0.00 | 51 | 1016.2 |
| 20260902123417 | 73 | 203 | 5.0 | 10.0 | 0.00 | 0.00 | 0.00 | 51 | 1015.9 |
| 20260902122915 | 73 | 213 | 7.0 | 9.0 | 0.00 | 0.00 | 0.00 | 51 | 1016.0 |
| 20260902122411 | 73 | 213 | 5.0 | 8.0 | 0.00 | 0.00 | 0.00 | 51 | 1015.8 |
| 20260902121906 | 73 | 201 | 7.0 | 8.0 | 0.00 | 0.00 | 0.00 | 51 | 1015.6 |
| 20260902121401 | 73 | 202 | 7.0 | 10.0 | 0.00 | 0.00 | 0.00 | 52 | 1015.7 |
| 20260902120855 | 72 | 188 | 5.0 | 7.0 | 0.00 | 0.00 | 0.00 | 52 | 1015.6 |
| 20260902120347 | 72 | 221 | 3.0 | 7.0 | 0.00 | 0.00 | 0.00 | 52 | 1015.7 |
| 20260902115845 | 72 | 187 | 6.0 | 7.0 | 0.00 | 0.00 | 0.00 | 53 | 1015.5 |
| 20260902115342 | 72 | 200 | 2.0 | 7.0 | 0.00 | 0.00 | 0.00 | 53 | 1015.6 |
| 20260902114838 | 72 | 230 | 3.0 | 7.0 | 0.00 | 0.00 | 0.00 | 53 | 1015.7 |
| 20260902114334 | 72 | 212 | 5.0 | 9.0 | 0.00 | 0.00 | 0.00 | 52 | 1015.5 |
| 20260902113828 | 72 | 209 | 7.0 | 8.0 | 0.00 | 0.00 | 0.00 | 52 | 1015.2 |
| 20260902113323 | 73 | 212 | 8.0 | 9.0 | 0.00 | 0.00 | 0.00 | 51 | 1015.4 |
| 20260902112817 | 73 | 201 | 8.0 | 13.0 | 0.00 | 0.00 | 0.00 | 50 | 1015.2 |
| 20260902112314 | 73 | 186 | 9.0 | 11.0 | 0.00 | 0.00 | 0.00 | 50 | 1015.4 |
| 20260902111809 | 73 | 190 | 3.0 | 10.0 | 0.00 | 0.00 | 0.00 | 51 | 1015.4 |
| 20260902111305 | 73 | 205 | 6.0 | 7.0 | 0.00 | 0.00 | 0.00 | 51 | 1015.5 |
| 20260902110801 | 73 | 187 | 8.0 | 9.0 | 0.00 | 0.00 | 0.00 | 51 | 1015.5 |
| 20260902110257 | 73 | 177 | 5.0 | 9.0 | 0.00 | 0.00 | 0.00 | 50 | 1015.7 |
| 20260902105756 | 73 | 175 | 3.0 | 8.0 | 0.00 | 0.00 | 0.00 | 50 | 1015.6 |
| 20260902105251 | 73 | 201 | 6.0 | 8.0 | 0.00 | 0.00 | 0.00 | 50 | 1015.8 |
| 20260902104747 | 73 | 180 | 6.0 | 9.0 | 0.00 | 0.00 | 0.00 | 49 | 1015.8 |
| 20260902104243 | 73 | 204 | 5.0 | 8.0 | 0.00 | 0.00 | 0.00 | 49 | 1015.7 |
| 20260902103742 | 73 | 206 | 6.0 | 8.0 | 0.00 | 0.00 | 0.00 | 49 | 1015.6 |
| 20260902103236 | 74 | 244 | 3.0 | 9.0 | 0.00 | 0.00 | 0.00 | 49 | 1015.7 |
| 20260902102732 | 74 | 206 | 6.0 | 9.0 | 0.00 | 0.00 | 0.00 | 49 | 1015.8 |
| 20260902102230 | 74 | 222 | 6.0 | 10.0 | 0.00 | 0.00 | 0.00 | 49 | 1015.6 |
| 20260902101725 | 74 | 218 | 6.0 | 10.0 | 0.00 | 0.00 | 0.00 | 48 | 1015.6 |
| 20260902101220 | 74 | 199 | 4.0 | 11.0 | 0.00 | 0.00 | 0.00 | 48 | 1015.7 |
| 20260902100719 | 75 | 194 | 5.0 | 10.0 | 0.00 | 0.00 | 0.00 | 47 | 1015.8 |
| 20260902100214 | 75 | 199 | 7.0 | 11.0 | 0.00 | 0.00 | 0.00 | 47 | 1015.8 |
| 20260902095713 | 75 | 202 | 7.0 | 11.0 | 0.00 | 0.00 | 0.00 | 47 | 1016.0 |
| 20260902095208 | 75 | 207 | 6.0 | 9.0 | 0.00 | 0.00 | 0.00 | 47 | 1015.7 |
| 20260902094703 | 75 | 187 | 5.0 | 9.0 | 0.00 | 0.00 | 0.00 | 47 | 1016.0 |
| 20260902094200 | 75 | 207 | 4.0 | 10.0 | 0.00 | 0.00 | 0.00 | 47 | 1015.7 |
| 20260902093658 | 75 | 214 | 7.0 | 10.0 | 0.00 | 0.00 | 0.00 | 47 | 1015.9 |
| 20260902093154 | 75 | 198 | 7.0 | 11.0 | 0.00 | 0.00 | 0.00 | 46 | 1015.8 |
| 20260902092648 | 75 | 190 | 6.0 | 9.0 | 0.00 | 0.00 | 0.00 | 47 | 1015.9 |
| 20260902092142 | 75 | 210 | 5.0 | 8.0 | 0.00 | 0.00 | 0.00 | 47 | 1016.0 |
| 20260902091637 | 75 | 206 | 6.0 | 10.0 | 0.00 | 0.00 | 0.00 | 46 | 1015.8 |
| 20260902091134 | 75 | 196 | 7.0 | 11.0 | 0.00 | 0.00 | 0.00 | 46 | 1016.0 |
| 20260902090629 | 76 | 201 | 8.0 | 11.0 | 0.00 | 0.00 | 0.00 | 45 | 1015.7 |
| 20260902090128 | 75 | 195 | 6.0 | 11.0 | 0.00 | 0.00 | 0.00 | 46 | 1015.8 |
| 20260902085624 | 75 | 190 | 7.0 | 10.0 | 0.00 | 0.00 | 0.00 | 46 | 1016.1 |
| 20260902085118 | 75 | 193 | 6.0 | 11.0 | 0.00 | 0.00 | 0.00 | 46 | 1016.0 |
| 20260902084614 | 75 | 197 | 6.0 | 11.0 | 0.00 | 0.00 | 0.00 | 46 | 1016.1 |
| 20260902084110 | 75 | 212 | 5.0 | 11.0 | 0.00 | 0.00 | 0.00 | 46 | 1015.9 |
| 20260902083605 | 74 | 210 | 7.0 | 11.0 | 0.00 | 0.00 | 0.00 | 47 | 1016.1 |
| 20260902083104 | 73 | 193 | 4.0 | 7.0 | 0.00 | 0.00 | 0.00 | 48 | 1016.0 |
| 20260902082600 | 73 | 176 | 5.0 | 6.0 | 0.00 | 0.00 | 0.00 | 48 | 1016.1 |
| 20260902082057 | 73 | 145 | 6.0 | 6.0 | 0.00 | 0.00 | 0.00 | 47 | 1016.0 |
| 20260902081553 | 73 | 174 | 5.0 | 7.0 | 0.00 | 0.00 | 0.00 | 47 | 1016.2 |
| 20260902081048 | 74 | 200 | 4.0 | 7.0 | 0.00 | 0.00 | 0.00 | 47 | 1016.2 |
| 20260902080543 | 74 | 165 | 6.0 | 9.0 | 0.00 | 0.00 | 0.00 | 46 | 1016.1 |
| 20260902080039 | 74 | 157 | 7.0 | 7.0 | 0.00 | 0.00 | 0.00 | 46 | 1016.4 |
| 20260902075539 | 75 | 165 | 5.0 | 9.0 | 0.00 | 0.00 | 0.00 | 45 | 1016.1 |
| 20260902075035 | 75 | 191 | 5.0 | 7.0 | 0.00 | 0.00 | 0.00 | 45 | 1016.1 |
| 20260902074530 | 75 | 192 | 7.0 | 11.0 | 0.00 | 0.00 | 0.00 | 45 | 1016.1 |
| 20260902074025 | 75 | 189 | 6.0 | 10.0 | 0.00 | 0.00 | 0.00 | 45 | 1016.1 |
| 20260902073521 | 75 | 176 | 7.0 | 8.0 | 0.00 | 0.00 | 0.00 | 45 | 1016.2 |
| 20260902073017 | 75 | 218 | 4.0 | 6.0 | 0.00 | 0.00 | 0.00 | 46 | 1016.2 |
| 20260902072512 | 75 | 183 | 7.0 | 8.0 | 0.00 | 0.00 | 0.00 | 46 | 1016.5 |
| 20260902072009 | 75 | 187 | 6.0 | 7.0 | 0.00 | 0.00 | 0.00 | 46 | 1016.2 |
| 20260902071508 | 75 | 202 | 5.0 | 7.0 | 0.00 | 0.00 | 0.00 | 47 | 1016.4 |
| 20260902071005 | 75 | 197 | 3.0 | 6.0 | 0.00 | 0.00 | 0.00 | 47 | 1016.2 |
| 20260902070454 | 75 | 198 | 5.0 | 6.0 | 0.00 | 0.00 | 0.00 | 47 | 1016.2 |
| 20260902065953 | 75 | 159 | 3.0 | 5.0 | 0.00 | 0.00 | 0.00 | 47 | 1016.5 |
| 20260902065448 | 75 | 181 | 4.0 | 5.0 | 0.00 | 0.00 | 0.00 | 47 | 1016.0 |
| 20260902064943 | 75 | 219 | 4.0 | 5.0 | 0.00 | 0.00 | 0.00 | 47 | 1016.0 |
| 20260902064439 | 76 | 177 | 3.0 | 5.0 | 0.00 | 0.00 | 0.00 | 46 | 1016.4 |
| 20260902063934 | 76 | 191 | 3.0 | 5.0 | 0.00 | 0.00 | 0.00 | 47 | 1016.1 |
| 20260902063433 | 76 | 160 | 3.0 | 4.0 | 0.00 | 0.00 | 0.00 | 46 | 1016.1 |
| 20260902062929 | 77 | 138 | 3.0 | 4.0 | 0.00 | 0.00 | 0.00 | 45 | 1015.8 |
| 20260902062428 | 77 | 161 | 2.0 | 5.0 | 0.00 | 0.00 | 0.00 | 44 | 1016.1 |
| 20260902061923 | 78 | 131 | 3.0 | 6.0 | 0.00 | 0.00 | 0.00 | 44 | 1016.0 |
| 20260902061419 | 78 | 167 | 3.0 | 6.0 | 0.00 | 0.00 | 0.00 | 44 | 1016.1 |
| 20260902060915 | 78 | 167 | 3.0 | 6.0 | 0.00 | 0.00 | 0.00 | 44 | 1016.2 |
| 20260902060410 | 77 | 155 | 3.0 | 7.0 | 0.00 | 0.00 | 0.00 | 45 | 1016.0 |
| 20260902055906 | 78 | 133 | 4.0 | 5.0 | 0.00 | 0.00 | 0.00 | 44 | 1016.2 |
| 20260902055402 | 77 | 161 | 2.0 | 7.0 | 0.00 | 0.00 | 0.00 | 45 | 1016.2 |
| 20260902054857 | 77 | 137 | 5.0 | 6.0 | 0.00 | 0.00 | 0.00 | 46 | 1016.2 |
| 20260902054352 | 77 | 130 | 3.0 | 5.0 | 0.00 | 0.00 | 0.00 | 46 | 1016.2 |
| 20260902053842 | 77 | 138 | 5.0 | 6.0 | 0.00 | 0.00 | 0.00 | 46 | 1016.1 |
| 20260902053337 | 77 | 138 | 5.0 | 6.0 | 0.00 | 0.00 | 0.00 | 45 | 1016.1 |
| 20260902052836 | 78 | 140 | 5.0 | 6.0 | 0.00 | 0.00 | 0.00 | 45 | 1016.1 |
| 20260902052331 | 78 | 143 | 4.0 | 5.0 | 0.00 | 0.00 | 0.00 | 45 | 1016.1 |
| 20260902051825 | 78 | 141 | 4.0 | 6.0 | 0.00 | 0.00 | 0.00 | 45 | 1016.2 |
| 20260902051320 | 78 | 149 | 3.0 | 6.0 | 0.00 | 0.00 | 0.00 | 45 | 1016.2 |
| 20260902050814 | 77 | 140 | 4.0 | 6.0 | 0.00 | 0.00 | 0.00 | 46 | 1016.1 |
| 20260902050314 | 78 | 140 | 5.0 | 5.0 | 0.00 | 0.00 | 0.00 | 45 | 1016.1 |
| 20260902045809 | 78 | 131 | 6.0 | 6.0 | 0.00 | 0.00 | 0.00 | 46 | 1016.1 |
| 20260902045306 | 77 | 134 | 3.0 | 5.0 | 0.00 | 0.00 | 0.00 | 46 | 1016.2 |
| 20260902044801 | 77 | 138 | 5.0 | 6.0 | 0.00 | 0.00 | 0.00 | 47 | 1016.1 |
| 20260902044256 | 77 | 138 | 5.0 | 8.0 | 0.00 | 0.00 | 0.00 | 47 | 1016.1 |
| 20260902043750 | 77 | 139 | 6.0 | 7.0 | 0.00 | 0.00 | 0.00 | 48 | 1016.1 |
| 20260902043247 | 77 | 129 | 5.0 | 5.0 | 0.00 | 0.00 | 0.00 | 47 | 1016.0 |
| 20260902042745 | 77 | 125 | 4.0 | 5.0 | 0.00 | 0.00 | 0.00 | 46 | 1016.0 |
| 20260902042240 | 77 | 144 | 4.0 | 6.0 | 0.00 | 0.00 | 0.00 | 46 | 1016.0 |
| 20260902041736 | 78 | 142 | 4.0 | 6.0 | 0.00 | 0.00 | 0.00 | 45 | 1016.1 |
| 20260902041236 | 78 | 126 | 4.0 | 6.0 | 0.00 | 0.00 | 0.00 | 45 | 1016.2 |
| 20260902040735 | 78 | 131 | 3.0 | 6.0 | 0.00 | 0.00 | 0.00 | 45 | 1016.0 |
| 20260902040230 | 78 | 137 | 4.0 | 6.0 | 0.00 | 0.00 | 0.00 | 44 | 1016.1 |
| 20260902035729 | 78 | 134 | 5.0 | 6.0 | 0.00 | 0.00 | 0.00 | 43 | 1016.0 |
| 20260902035225 | 78 | 119 | 4.0 | 5.0 | 0.00 | 0.00 | 0.00 | 44 | 1016.0 |
| 20260902034724 | 79 | 122 | 3.0 | 5.0 | 0.00 | 0.00 | 0.00 | 43 | 1015.9 |
| 20260902034224 | 81 | 119 | 3.0 | 5.0 | 0.00 | 0.00 | 0.00 | 40 | 1015.9 |
| 20260902033722 | 81 | 133 | 5.0 | 7.0 | 0.00 | 0.00 | 0.00 | 39 | 1016.0 |
| 20260902033218 | 81 | 136 | 3.0 | 5.0 | 0.00 | 0.00 | 0.00 | 39 | 1015.8 |
| 20260902032716 | 82 | 141 | 4.0 | 5.0 | 0.00 | 0.00 | 0.00 | 38 | 1015.9 |
| 20260902032212 | 82 | 153 | 3.0 | 4.0 | 0.00 | 0.00 | 0.00 | 38 | 1015.9 |
| 20260902031711 | 81 | 139 | 3.0 | 6.0 | 0.00 | 0.00 | 0.00 | 39 | 1015.8 |
| 20260902031207 | 81 | 144 | 4.0 | 6.0 | 0.00 | 0.00 | 0.00 | 39 | 1015.7 |
| 20260902030702 | 81 | 140 | 7.0 | 8.0 | 0.00 | 0.00 | 0.00 | 38 | 1015.6 |
| 20260902030202 | 81 | 139 | 5.0 | 6.0 | 0.00 | 0.00 | 0.00 | 39 | 1015.6 |
| 20260902025656 | 82 | 142 | 5.0 | 6.0 | 0.00 | 0.00 | 0.00 | 38 | 1015.5 |
| 20260902025152 | 83 | 181 | 4.0 | 7.0 | 0.00 | 0.00 | 0.00 | 37 | 1015.6 |
| 20260902024647 | 83 | 198 | 3.0 | 7.0 | 0.00 | 0.00 | 0.00 | 37 | 1015.6 |
| 20260902024142 | 82 | 158 | 4.0 | 7.0 | 0.00 | 0.00 | 0.00 | 37 | 1015.4 |
| 20260902023637 | 83 | 130 | 4.0 | 6.0 | 0.00 | 0.00 | 0.00 | 37 | 1015.2 |
| 20260902023132 | 83 | 160 | 4.0 | 7.0 | 0.00 | 0.00 | 0.00 | 36 | 1015.1 |
| 20260902022631 | 83 | 145 | 5.0 | 6.0 | 0.00 | 0.00 | 0.00 | 36 | 1015.0 |
| 20260902022128 | 83 | 150 | 3.0 | 7.0 | 0.00 | 0.00 | 0.00 | 36 | 1014.9 |
| 20260902021623 | 83 | 180 | 2.0 | 3.0 | 0.00 | 0.00 | 0.00 | 37 | 1014.8 |
| 20260902021122 | 83 | 140 | 1.0 | 5.0 | 0.00 | 0.00 | 0.00 | 36 | 1014.8 |
| 20260902020618 | 83 | 168 | 3.0 | 6.0 | 0.00 | 0.00 | 0.00 | 36 | 1014.8 |
| 20260902020114 | 84 | 174 | 4.0 | 6.0 | 0.00 | 0.00 | 0.00 | 36 | 1014.9 |
| 20260902015609 | 84 | 183 | 4.0 | 5.0 | 0.00 | 0.00 | 0.00 | 35 | 1014.6 |
| 20260902015105 | 84 | 197 | 4.0 | 6.0 | 0.00 | 0.00 | 0.00 | 35 | 1014.6 |
| 20260902014601 | 85 | 162 | 4.0 | 6.0 | 0.00 | 0.00 | 0.00 | 34 | 1014.7 |
| 20260902014056 | 85 | 155 | 3.0 | 6.0 | 0.00 | 0.00 | 0.00 | 34 | 1014.8 |
| 20260902013555 | 85 | 167 | 2.0 | 7.0 | 0.00 | 0.00 | 0.00 | 34 | 1014.6 |
| 20260902013051 | 85 | 168 | 5.0 | 6.0 | 0.00 | 0.00 | 0.00 | 34 | 1014.5 |
| 20260902012547 | 86 | 184 | 3.0 | 5.0 | 0.00 | 0.00 | 0.00 | 33 | 1014.3 |
| 20260902012042 | 86 | 177 | 5.0 | 7.0 | 0.00 | 0.00 | 0.00 | 33 | 1014.8 |
| 20260902011537 | 87 | 153 | 3.0 | 7.0 | 0.00 | 0.00 | 0.00 | 33 | 1014.7 |
| 20260902011037 | 87 | 153 | 3.0 | 7.0 | 0.00 | 0.00 | 0.00 | 32 | 1014.7 |
| 20260902010536 | 87 | 179 | 5.0 | 7.0 | 0.00 | 0.00 | 0.00 | 32 | 1014.5 |
| 20260902010032 | 88 | 168 | 6.0 | 7.0 | 0.00 | 0.00 | 0.00 | 31 | 1014.3 |
| 20260902005530 | 89 | 177 | 6.0 | 8.0 | 0.00 | 0.00 | 0.00 | 31 | 1014.2 |
| 20260902005027 | 89 | 180 | 5.0 | 11.0 | 0.00 | 0.00 | 0.00 | 30 | 1014.1 |
| 20260902004526 | 90 | 185 | 7.0 | 10.0 | 0.00 | 0.00 | 0.00 | 30 | 1014.5 |
| 20260902004021 | 90 | 200 | 5.0 | 12.0 | 0.00 | 0.00 | 0.00 | 28 | 1014.3 |
| 20260902003517 | 91 | 195 | 10.0 | 12.0 | 0.00 | 0.00 | 0.00 | 28 | 1014.3 |
| 20260902003012 | 91 | 203 | 6.0 | 11.0 | 0.00 | 0.00 | 0.00 | 28 | 1014.3 |
| 20260902002508 | 91 | 191 | 7.0 | 10.0 | 0.00 | 0.00 | 0.00 | 28 | 1014.2 |
| 20260902002002 | 91 | 179 | 6.0 | 10.0 | 0.00 | 0.00 | 0.00 | 27 | 1014.2 |
| 20260902001456 | 92 | 215 | 3.0 | 11.0 | 0.00 | 0.00 | 0.00 | 27 | 1014.1 |
| 20260902000952 | 92 | 176 | 6.0 | 15.0 | 0.00 | 0.00 | 0.00 | 27 | 1014.2 |
| 20260902000447 | 92 | 212 | 8.0 | 13.0 | 0.00 | 0.00 | 0.00 | 26 | 1014.2 |
| 20260901235942 | 92 | 225 | 6.0 | 12.0 | 0.00 | 0.00 | 0.00 | 26 | 1014.0 |
| 20260901235437 | 93 | 215 | 9.0 | 10.0 | 0.00 | 0.00 | 0.00 | 26 | 1014.1 |
| 20260901234932 | 93 | 185 | 8.0 | 14.0 | 0.00 | 0.00 | 0.00 | 26 | 1014.0 |
| 20260901234426 | 93 | 217 | 6.0 | 11.0 | 0.00 | 0.00 | 0.00 | 26 | 1014.0 |
| 20260901233920 | 93 | 184 | 9.0 | 13.0 | 0.00 | 0.00 | 0.00 | 25 | 1013.9 |
| 20260901233410 | 93 | 183 | 3.0 | 12.0 | 0.00 | 0.00 | 0.00 | 25 | 1013.6 |
| 20260901232906 | 93 | 177 | 6.0 | 13.0 | 0.00 | 0.00 | 0.00 | 25 | 1013.7 |
| 20260901232401 | 93 | 146 | 7.0 | 17.0 | 0.00 | 0.00 | 0.00 | 25 | 1013.7 |
| 20260901231856 | 93 | 166 | 9.0 | 14.0 | 0.00 | 0.00 | 0.00 | 25 | 1013.6 |
| 20260901231353 | 93 | 175 | 5.0 | 9.0 | 0.00 | 0.00 | 0.00 | 26 | 1013.8 |
| 20260901230849 | 92 | 154 | 5.0 | 11.0 | 0.00 | 0.00 | 0.00 | 26 | 1013.8 |
| 20260901230348 | 92 | 159 | 7.0 | 9.0 | 0.00 | 0.00 | 0.00 | 26 | 1013.9 |
| 20260901225844 | 93 | 191 | 5.0 | 11.0 | 0.00 | 0.00 | 0.00 | 26 | 1013.8 |
| 20260901225343 | 92 | 202 | 4.0 | 17.0 | 0.00 | 0.00 | 0.00 | 26 | 1014.0 |
| 20260901224838 | 93 | 165 | 5.0 | 14.0 | 0.00 | 0.00 | 0.00 | 26 | 1013.8 |
| 20260901224334 | 93 | 213 | 7.0 | 19.0 | 0.00 | 0.00 | 0.00 | 26 | 1013.8 |
| 20260901223831 | 94 | 174 | 8.0 | 14.0 | 0.00 | 0.00 | 0.00 | 25 | 1014.0 |
| 20260901223326 | 95 | 191 | 11.0 | 15.0 | 0.00 | 0.00 | 0.00 | 24 | 1013.8 |
| 20260901222821 | 94 | 141 | 8.0 | 12.0 | 0.00 | 0.00 | 0.00 | 26 | 1014.0 |
| 20260901222318 | 94 | 166 | 7.0 | 15.0 | 0.00 | 0.00 | 0.00 | 25 | 1014.1 |
| 20260901221813 | 95 | 189 | 6.0 | 13.0 | 0.00 | 0.00 | 0.00 | 25 | 1014.3 |
| 20260901221308 | 94 | 226 | 15.0 | 17.0 | 0.00 | 0.00 | 0.00 | 26 | 1013.9 |
| 20260901220808 | 94 | 197 | 9.0 | 11.0 | 0.00 | 0.00 | 0.00 | 26 | 1014.0 |
| 20260901220302 | 93 | 176 | 9.0 | 17.0 | 0.00 | 0.00 | 0.00 | 26 | 1014.2 |
| 20260901215801 | 93 | 215 | 6.0 | 13.0 | 0.00 | 0.00 | 0.00 | 28 | 1014.1 |
| 20260901215300 | 93 | 197 | 11.0 | 15.0 | 0.00 | 0.00 | 0.00 | 26 | 1014.1 |
| 20260901214759 | 94 | 180 | 7.0 | 18.0 | 0.00 | 0.00 | 0.00 | 27 | 1014.3 |
| 20260901214258 | 93 | 164 | 9.0 | 13.0 | 0.00 | 0.00 | 0.00 | 27 | 1014.3 |
| 20260901213753 | 92 | 168 | 4.0 | 11.0 | 0.00 | 0.00 | 0.00 | 29 | 1014.6 |
| 20260901213252 | 91 | 199 | 5.0 | 12.0 | 0.00 | 0.00 | 0.00 | 28 | 1014.7 |
| 20260901212746 | 92 | 156 | 7.0 | 13.0 | 0.00 | 0.00 | 0.00 | 29 | 1014.9 |
| 20260901212243 | 93 | 186 | 7.0 | 13.0 | 0.00 | 0.00 | 0.00 | 28 | 1014.7 |
| 20260901211737 | 93 | 206 | 11.0 | 14.0 | 0.00 | 0.00 | 0.00 | 27 | 1014.8 |
| 20260901211234 | 91 | 204 | 7.0 | 16.0 | 0.00 | 0.00 | 0.00 | 29 | 1015.1 |
| 20260901210729 | 93 | 205 | 10.0 | 16.0 | 0.00 | 0.00 | 0.00 | 28 | 1015.0 |
| 20260901210224 | 94 | 185 | 6.0 | 11.0 | 0.00 | 0.00 | 0.00 | 27 | 1015.0 |
| 20260901205720 | 93 | 144 | 9.0 | 11.0 | 0.00 | 0.00 | 0.00 | 28 | 1015.1 |
| 20260901205215 | 94 | 179 | 5.0 | 9.0 | 0.00 | 0.00 | 0.00 | 27 | 1015.1 |
| 20260901204710 | 94 | 201 | 6.0 | 12.0 | 0.00 | 0.00 | 0.00 | 28 | 1015.4 |
| 20260901204206 | 93 | 220 | 9.0 | 13.0 | 0.00 | 0.00 | 0.00 | 28 | 1015.2 |
| 20260901203701 | 92 | 195 | 7.0 | 11.0 | 0.00 | 0.00 | 0.00 | 30 | 1015.6 |
| 20260901203156 | 91 | 203 | 8.0 | 15.0 | 0.00 | 0.00 | 0.00 | 30 | 1015.4 |
| 20260901202655 | 92 | 190 | 8.0 | 12.0 | 0.00 | 0.00 | 0.00 | 28 | 1015.8 |
| 20260901202151 | 92 | 210 | 13.0 | 13.0 | 0.00 | 0.00 | 0.00 | 29 | 1015.8 |
| 20260901201647 | 91 | 203 | 7.0 | 14.0 | 0.00 | 0.00 | 0.00 | 29 | 1015.9 |
| 20260901201145 | 91 | 164 | 7.0 | 12.0 | 0.00 | 0.00 | 0.00 | 29 | 1016.0 |
| 20260901200640 | 93 | 175 | 11.0 | 16.0 | 0.00 | 0.00 | 0.00 | 28 | 1015.9 |
| 20260901200135 | 91 | 165 | 9.0 | 15.0 | 0.00 | 0.00 | 0.00 | 29 | 1015.9 |
| 20260901195632 | 92 | 184 | 7.0 | 11.0 | 0.00 | 0.00 | 0.00 | 29 | 1016.1 |
| 20260901195133 | 92 | 142 | 6.0 | 10.0 | 0.00 | 0.00 | 0.00 | 29 | 1016.0 |
| 20260901194628 | 91 | 166 | 3.0 | 16.0 | 0.00 | 0.00 | 0.00 | 31 | 1016.1 |
| 20260901194123 | 92 | 143 | 9.0 | 12.0 | 0.00 | 0.00 | 0.00 | 30 | 1016.4 |
| 20260901193619 | 92 | 144 | 12.0 | 15.0 | 0.00 | 0.00 | 0.00 | 30 | 1016.1 |
| 20260901193113 | 91 | 186 | 7.0 | 14.0 | 0.00 | 0.00 | 0.00 | 30 | 1016.4 |
| 20260901192608 | 91 | 200 | 7.0 | 11.0 | 0.00 | 0.00 | 0.00 | 30 | 1016.6 |
| 20260901192103 | 93 | 168 | 12.0 | 17.0 | 0.00 | 0.00 | 0.00 | 29 | 1016.6 |
| 20260901191559 | 91 | 150 | 11.0 | 15.0 | 0.00 | 0.00 | 0.00 | 30 | 1016.7 |
| 20260901191055 | 92 | 157 | 5.0 | 16.0 | 0.00 | 0.00 | 0.00 | 30 | 1016.6 |
| 20260901190550 | 91 | 150 | 4.0 | 12.0 | 0.00 | 0.00 | 0.00 | 30 | 1016.4 |
| 20260901190049 | 92 | 171 | 7.0 | 14.0 | 0.00 | 0.00 | 0.00 | 29 | 1016.9 |
| 20260901185543 | 91 | 148 | 9.0 | 13.0 | 0.00 | 0.00 | 0.00 | 31 | 1016.7 |
| 20260901185042 | 92 | 142 | 6.0 | 11.0 | 0.00 | 0.00 | 0.00 | 29 | 1016.9 |
| 20260901184537 | 91 | 172 | 8.0 | 14.0 | 0.00 | 0.00 | 0.00 | 30 | 1016.8 |
| 20260901184032 | 91 | 203 | 4.0 | 10.0 | 0.00 | 0.00 | 0.00 | 31 | 1017.0 |
| 20260901183527 | 91 | 183 | 9.0 | 13.0 | 0.00 | 0.00 | 0.00 | 30 | 1017.1 |
| 20260901183022 | 91 | 180 | 7.0 | 11.0 | 0.00 | 0.00 | 0.00 | 31 | 1017.0 |
| 20260901182519 | 89 | 210 | 5.0 | 13.0 | 0.00 | 0.00 | 0.00 | 31 | 1017.2 |
| 20260901182018 | 91 | 207 | 9.0 | 16.0 | 0.00 | 0.00 | 0.00 | 30 | 1017.2 |
| 20260901181518 | 91 | 208 | 6.0 | 17.0 | 0.00 | 0.00 | 0.00 | 31 | 1017.4 |
| 20260901181017 | 90 | 231 | 8.0 | 12.0 | 0.00 | 0.00 | 0.00 | 31 | 1017.4 |
| 20260901180516 | 91 | 201 | 5.0 | 17.0 | 0.00 | 0.00 | 0.00 | 32 | 1017.5 |
| 20260901180011 | 90 | 155 | 7.0 | 14.0 | 0.00 | 0.00 | 0.00 | 32 | 1017.2 |
| 20260901175504 | 88 | 203 | 6.0 | 15.0 | 0.00 | 0.00 | 0.00 | 34 | 1017.2 |
| 20260901174959 | 88 | 190 | 7.0 | 15.0 | 0.00 | 0.00 | 0.00 | 34 | 1017.5 |
| 20260901174455 | 88 | 219 | 9.0 | 13.0 | 0.00 | 0.00 | 0.00 | 34 | 1017.4 |
| 20260901173951 | 90 | 203 | 5.0 | 9.0 | 0.00 | 0.00 | 0.00 | 33 | 1017.7 |
| 20260901173445 | 90 | 193 | 4.0 | 10.0 | 0.00 | 0.00 | 0.00 | 33 | 1017.9 |
| 20260901172941 | 90 | 206 | 7.0 | 9.0 | 0.00 | 0.00 | 0.00 | 34 | 1017.6 |
| 20260901172436 | 90 | 165 | 7.0 | 13.0 | 0.00 | 0.00 | 0.00 | 32 | 1017.8 |
| 20260901171929 | 89 | 116 | 5.0 | 7.0 | 0.00 | 0.00 | 0.00 | 33 | 1017.7 |
| 20260901171428 | 89 | 190 | 5.0 | 8.0 | 0.00 | 0.00 | 0.00 | 36 | 1017.9 |
| 20260901170927 | 87 | 214 | 10.0 | 13.0 | 0.00 | 0.00 | 0.00 | 36 | 1017.9 |
| 20260901170422 | 88 | 206 | 12.0 | 17.0 | 0.00 | 0.00 | 0.00 | 35 | 1017.7 |
| 20260901165921 | 88 | 195 | 8.0 | 15.0 | 0.00 | 0.00 | 0.00 | 36 | 1017.7 |
| 20260901165416 | 87 | 226 | 9.0 | 15.0 | 0.00 | 0.00 | 0.00 | 39 | 1017.9 |
| 20260901164913 | 88 | 229 | 9.0 | 13.0 | 0.00 | 0.00 | 0.00 | 39 | 1017.8 |
| 20260901164413 | 87 | 228 | 8.0 | 11.0 | 0.00 | 0.00 | 0.00 | 40 | 1017.7 |
| 20260901163907 | 86 | 189 | 4.0 | 9.0 | 0.00 | 0.00 | 0.00 | 41 | 1017.8 |
| 20260901163402 | 87 | 232 | 8.0 | 16.0 | 0.00 | 0.00 | 0.00 | 39 | 1017.7 |
| 20260901162857 | 87 | 210 | 11.0 | 14.0 | 0.00 | 0.00 | 0.00 | 40 | 1017.7 |
| 20260901162356 | 87 | 210 | 15.0 | 18.0 | 0.00 | 0.00 | 0.00 | 40 | 1017.8 |
| 20260901161855 | 86 | 220 | 6.0 | 13.0 | 0.00 | 0.00 | 0.00 | 43 | 1017.7 |
| 20260901161350 | 87 | 225 | 11.0 | 18.0 | 0.00 | 0.00 | 0.00 | 41 | 1017.8 |